AirNav   Duncan Aviation - Near you to keep you flying
 
 1636 users online  

4O1 Snyder Airport
Snyder, Oklahoma, USA

GOING TO SNYDER?


FAA INFORMATION EFFECTIVE 03 NOVEMBER 2022

Location

FAA Identifier: 4O1
Lat/Long: 34-37-39.8000N 099-00-50.4000W
34-37.663333N 099-00.840000W
34.6277222,-99.0140000
(estimated)
Elevation: 1325 ft. / 404 m (estimated)
Variation: 08E (1985)
From city: 4 miles SW of SNYDER, OK
Time zone: UTC -6 (UTC -5 during Daylight Saving Time)
Zip code: 73566

Airport Operations

Airport use: Open to the public
Activation date: 08/1969
Control tower: no
ARTCC: FORT WORTH CENTER
FSS: MC ALESTER FLIGHT SERVICE STATION
NOTAMs facility: MLC (NOTAM-D service available)
Attendance: IREG
Wind indicator: yes
Segmented circle: no

Airport Communications

CTAF: 122.9
WX AWOS-3PT at AXS (17 nm W): 118.825 (580-477-1745)
WX ASOS at FDR (17 nm S): 132.675 (580-335-7591)

Nearby radio navigation aids

VOR radial/distance  VOR name  Freq  Var
LTSr094/12.9ALTUS VORTAC109.8005E
HBRr160/14.5HOBART VORTAC111.8010E
LAWr276/30.7LAWTON VOR/DME109.4009E
BFVr161/37.8BURNS FLAT VORTAC110.0005E

Airport Services

Fuel available: 100LL JET-A
100LL:FUEL AVBL ON REQ CALL 580-569-2222.
Parking: hangars
Airframe service: NONE
Powerplant service: NONE
Bottled oxygen: NONE
Bulk oxygen: NONE

Runway Information

Runway 17/35

Dimensions: 2125 x 30 ft. / 648 x 9 m
Surface: asphalt, in good condition
RUNWAY 17  RUNWAY 35
Latitude: 34-37.838530N34-37.488160N
Longitude: 099-00.843597W099-00.837472W
Elevation: 1319.0 ft.1316.0 ft.
Traffic pattern: leftleft
Runway heading: 171 magnetic, 179 true351 magnetic, 359 true
Markings: nonenone
Obstructions: none30 ft. trees, 230 ft. from runway, 75 ft. left of centerline, 1:1 slope to clear
+25 FT TREES 130 FT FM RY END AND 100 FT LEFT.

Airport Ownership and Management from official FAA records

Ownership: Privately-owned
Owner: SNYDER SPRAYING SERVICE, INC.
PO BOX 280
SNYDER, OK 73566
Phone (580) 569-2222
Manager: GERALD SCHULZ
PO BOX 280
SNYDER, OK 73566
Phone 580-569-2222

Airport Operational Statistics

Aircraft based on the field: 2
Single engine airplanes: 2
    
Aircraft operations: avg 42/month *
90% local general aviation
10% transient general aviation
* for 12-month period ending 28 November 2018

Additional Remarks

FOR CD CTC FORT WORTH ARTCC AT 817-858-7584.

Instrument Procedures

There are no published instrument procedures at 4O1.

Some nearby airports with instrument procedures:

KLTS - Altus Air Force Base (13 nm W)
KAXS - Altus/Quartz Mountain Regional Airport (17 nm W)
KFDR - Frederick Regional Airport (17 nm S)
KHBR - Hobart Regional Airport (22 nm N)
F05 - Wilbarger County Airport (28 nm SW)
 
Loc | Ops | Rwys | IFR | FBO | Links
Com | Nav | Svcs | Stats | Notes

AirBoss

 
Area around 4O1 (Snyder Airport)
 
Road maps at: MapQuest Bing Google
 
Aerial photo
WARNING: Photo may not be current or correct
Aerial photo of 4O1 (Snyder Airport)
Photo by Bryan J. Painter
Photo taken 18-May-2008

Do you have a better or more recent aerial photo of Snyder Airport that you would like to share? If so, please send us your photo.

 
Sectional chart

 
Airport distance calculator
Flying to Snyder Airport? Find the distance to fly.

From to 4O1

Sunrise and sunset
Times for 28-Nov-2022
 Local
(UTC-6)
 Zulu
(UTC)
Morning civil twilight06:5612:56
Sunrise07:2313:23
Sunset17:2523:25
Evening civil twilight17:5223:52

Current date and time
Zulu (UTC)  28-Nov-2022 16:22:21
Local (UTC-6)  28-Nov-2022 10:22:21
 
METAR
KLTS 
13nm W 
281555Z AUTO 17013KT 10SM CLR 08/05 A2983 RMK AO2 SLP105 T00760045 $
KAXS 
16nm W 
281555Z AUTO 17009KT 10SM CLR 08/05 A2987 RMK AO2 T00790052
KFDR 
17nm S 
281553Z AUTO 18012KT 10SM CLR 09/06 A2984 RMK AO2 SLP104 T00890061
KHBR 
21nm N 
281553Z AUTO 19018G22KT 10SM 08/06 A2983 RMK AO2 SLP105 T00830056
TAF
KLTS 
13nm W 
280900Z 2809/2915 VRB06KT 9999 SKC 510033 QNH2984INS BECMG 2815/2816 19012G18KT 9999 SCT240 510053 QNH2959INS BECMG 2913/2914 22008KT 9999 SKC 510013 QNH2962INS TX16/2821Z TN00/2811Z
NOTAMs
Click for the latest NOTAMs
NOTAMs are issued by the DoD/FAA and will open in a separate window not controlled by AirNav.

 

 
 

FBO, Fuel Providers, and Aircraft Ground Support

  
 Business Name 
 
 Contact 
 
 Services / Description 
 
Fuel Prices
 
Comments
  
Snyder Spraying Service 580-569-2222
no information available

If you are affiliated with Snyder Spraying Service and would like to show here your services, contact info, web link, logo, and more, click here
100LL
PS $4.00 
 Updated 13-Aug-2019
 
   1 read write
PS=Pump service
Update Fuel Prices
 

Would you like to see your business listed on this page?

 If your business provides an interesting product or service to pilots, flight crews, aircraft, or users of the Snyder Airport, you should consider listing it here.  To start the listing process, click on the button below
 
Add a business
 

Other Pages about Snyder Airport

Update a link
 
Copyright © AirNav, LLC. All rights reserved. Privacy Policy  Contact